Miscellaneous Local Product
Issued by NWS North Platte, NE

Home | Current Version | Previous Version | Text Only | Print | Product List | Glossary On
Versions: 1 2 3 4 5 6 7 8 9 10 11 12 13 14 15 16 17 18 19 20 21 22 23 24 25 26 27 28 29 30 31 32 33 34 35 36 37 38 39 40 41 42 43 44 45 46 47 48 49 50
722
AXUS43 KLBF 061610
MISLBF


WESTERN AND NORTH CENTRAL NEBRASKA HOURLY WEATHER ROUNDUP
NATIONAL WEATHER SERVICE NORTH PLATTE NE
1000 AM CST SAT FEB 06 2016

NOTE: "FAIR" INDICATES FEW OR NO CLOUDS BELOW 12,000 FEET WITH NO
SIGNIFICANT WEATHER AND/OR OBSTRUCTIONS TO VISIBILITY.

NOTE: STATIONS NOT REPORTING VARIABLES SUCH AS SKY/WEATHER OR
PRESSURE ARE PROVIDED BY THE NEBRASKA DEPARTMENT OF
ROADS...RAWS...AND APRS NETWORKS...AND ARE NOT UNDER
NATIONAL WEATHER SERVICE QUALITY CONTROL.

...OBSERVATIONS IN AND NEAR THE EASTERN PANHANDLE OF NEBRASKA...

CITY           SKY/WX    TMP DP  RH WIND       PRES   REMARKS
PINE RIDGE     CLOUDY    32  19  58 W13       30.09F WCI  22
CHADRON        CLOUDY    31  20  63 W8        30.11F WCI  23
ALLIANCE       CLOUDY    27  19  72 W17       30.10F WCI  14
SIDNEY         CLOUDY    28  18  66 NW14      30.16S WCI  17
CRESCENT LAKE    N/A     35  23  62 W12         N/A  WCI  27
$$

...OBSERVATIONS IN NORTH CENTRAL NEBRASKA...

CITY           SKY/WX    TMP DP  RH WIND       PRES   REMARKS
VALENTINE      CLOUDY    34  22  61 W15       30.06F WCI  24
THEDFORD       MOSUNNY   36  24  62 W13       30.10F WCI  27
AINSWORTH      SUNNY     33  22  65 W15       30.06F WCI  23
O`NEILL        MOSUNNY   28  19  70 SW7       30.08F WCI  21
ORD            CLOUDY    22  18  85 S6        30.14F WCI  14
BROKEN BOW     CLOUDY    22  16  78 S3        30.13F
VALENTINE NWR    N/A     32  20  62 W12         N/A  WCI  23
BUTTE            N/A     28  23  81 SW10G20     N/A  WCI  19
HALSEY           N/A     31  20  63 SW3         N/A
CHAMBERS         N/A     29  16  58 W6          N/A  WCI  23
EWING            N/A     26  20  79 SW5         N/A  WCI  20
$$

...OBSERVATIONS IN SOUTHWEST NEBRASKA AND FAR NORTHEAST COLORADO...

CITY           SKY/WX    TMP DP  RH WIND       PRES   REMARKS
WRAY           FAIR      22  10  59 SW8       30.22S WCI  12
HOLYOKE        FAIR      28  16  59 W9        30.19S WCI  20
IMPERIAL       CLOUDY    23  12  62 W12       30.20S WCI  12
OGALLALA       CLOUDY    18   9  67 W15       30.18S WCI   3
NORTH PLATTE   CLOUDY    19  12  74 NW5       30.18S WCI  12
MCCOOK         CLOUDY    21  11  65 W13       30.23S WCI   9
LEXINGTON      CLOUDY   N/A N/A N/A CALM      30.19F
PAXTON           N/A     20  16  83 SW7         N/A  WCI  11
STAPLETON        N/A     25  19  78 CALM        N/A
GOTHENBURG       N/A     24  16  71 W3          N/A
CALLAWAY         N/A     25  18  74 W15         N/A  WCI  13
$$

...OBSERVATIONS IN CENTRAL LINCOLN COUNTY AREA...

CITY           SKY/WX    TMP DP  RH WIND       PRES   REMARKS
N.P. AIRPORT   CLOUDY    19  12  74 NW5       30.18S WCI  12
N.P. DOWNTOWN    N/A     24  17  74 CALM        N/A
N.P. SOUTHEAST   N/A     23  15  73 W3          N/A
N.P. HILLCREST   N/A     19  14  81 W7          N/A  WCI  10
$$

...SOME OBSERVATIONS FROM AROUND THE REGION...

CITY           SKY/WX    TMP DP  RH WIND       PRES   REMARKS
DENVER         CLOUDY    30  13  49 S17       30.18R WCI  18
LARAMIE        CLOUDY    26  13  57 SW20      30.22F WCI  12
CHEYENNE       CLOUDY    35  17  47 NW23G37   30.12S WCI  23
SCOTTSBLUFF    CLOUDY    28  18  66 N6        30.15F WCI  22
RAPID CITY     CLOUDY    40  27  59 S6        29.98F
BISMARCK       CLOUDY    42  26  53 SW8       29.80F
PIERRE         MOSUNNY   33  22  63 SW15      29.96F WCI  23
WINNER         FAIR      33  20  58 SW12      30.02S WCI  24
SIOUX FALLS    PTSUNNY   25  22  88 SW9       30.07F WCI  15
OMAHA          FOG       26  25  96 SE8       30.24S VSB 3/4 WCI  18
GRAND ISLAND   CLOUDY    25  17  72 SW14      30.20S WCI  13
KANSAS CITY    MOSUNNY   36  30  79 NW5       30.30R WCI  32
WICHITA        SUNNY     37  28  70 NW6       30.35R WCI  32
OKLAHOMA CITY  MOSUNNY   40  30  67 N6        30.38R
LIBERAL        SUNNY     34  21  60 NW8       30.34S WCI  27
HAYS           SUNNY     25   9  50 W9        30.30F WCI  15
GOODLAND       CLOUDY    27  12  53 SW14      30.23R WCI  16
$$




USA.gov is the U.S. government's official web portal to all federal, state and local government web resources and services.